Location: Antioch
(38.0049°N, 121.8058°W)
Time: 02:44:08
(UTC+00:00)

Cosmos 2208 Rocket - Pass Details

Date: 24 May 2026
Orbit: 751 x 800 km, 74.0° (Epoch: 9 June)

Event Time Altitude Azimuth Distance (km) Brightness Sun altitude
Exits shadow 06:53:23 11° 69° (ENE) 2,256 6.4 -28.9°
Drops below altitude 10° 06:53:42 10° 65° (ENE) 2,312 6.5 -28.9°
Sets 06:57:15 0° 41° (NE) 3,233 7.6 -29.1°
